Location: Newark
(40.0667°N, 18.0500°E)
Time: 01:13:31
(UTC+00:00)

N. Korean satellite - Pass Details

Date: 04 February 2020
Orbit: 456 x 505 km, 97.2° (Epoch: 27 February)

Event Time Altitude Azimuth Distance (km) Brightness Sun altitude
Rises 16:43:52 0° 206° (SSW) 2,463 10.8 -7.1°
Reaches altitude 10° 16:46:34 10° 230° (SW) 1,601 10.4 -7.6°
Maximum altitude 16:48:38 15° 267° (W) 1,325 10.2 -7.9°
Drops below altitude 10° 16:50:44 10° 305° (NW) 1,620 9.8 -8.3°
Sets 16:53:29 0° 329° (NNW) 2,512 10.4 -8.8°
